Time_in_sec,Mx,My,Mz
1314364169.71346593,0.01819992,0.58556199,-0.54380333
1314364169.76226854,0.01721799,0.58657581,-0.54170793
1314364169.81250167,0.01698234,0.58616674,-0.54117149
1314364169.87345481,0.01629228,0.58525360,-0.53904510
1314364169.91355014,0.01431887,0.58502769,-0.53983271
1314364169.96183395,0.01557724,0.58582819,-0.54394990
1314364170.01248670,0.01825563,0.58550632,-0.54068774
1314364170.06191373,0.01661005,0.58603549,-0.54051727
1314364170.12146544,0.01686985,0.58501118,-0.54089940
1314364170.16452694,0.01649272,0.58631402,-0.54241574
1314364170.21278119,0.01903208,0.58486652,-0.54158270
1314364170.27351689,0.01648556,0.58721161,-0.54242295
1314364170.31362033,0.01522530,0.58541209,-0.54072785
1314364170.36146998,0.01646635,0.58281255,-0.53874665
1314364170.41350818,0.01862895,0.58550936,-0.54134101
1314364170.46161652,0.01419227,0.58543605,-0.54186773
1314364170.52150607,0.01526432,0.58361220,-0.54030710
1314364170.56160951,0.01800907,0.58383942,-0.54041952
1314364170.62053204,0.01680631,0.58312237,-0.54211074
1314364170.66147280,0.01791301,0.58503014,-0.54179090
1314364170.71361494,0.01660448,0.58367330,-0.54536664
1314364170.76167965,0.01630311,0.58619285,-0.54094809
1314364170.81345654,0.01472211,0.58455747,-0.54224247
1314364170.86064577,0.01485718,0.58391619,-0.54236484
1314364170.91667223,0.01750196,0.58623660,-0.54614389
1314364170.96151447,0.01815343,0.58644253,-0.54219264
1314364171.01259303,0.01676834,0.58581895,-0.54240328
1314364171.06550884,0.01604390,0.58857250,-0.54719114
1314364171.12150669,0.01869895,0.58528489,-0.54242224
1314364171.16147351,0.01775209,0.58375549,-0.54233062
1314364171.21259570,0.01696964,0.58367789,-0.54615551
1314364171.26149130,0.01816696,0.58556831,-0.54434526
1314364171.31394053,0.01758112,0.58353215,-0.54517388
1314364171.36165643,0.01554226,0.58547080,-0.54449683
1314364171.42549586,0.01729449,0.58481795,-0.54520023
1314364171.47350097,0.01780926,0.58648360,-0.54558796
1314364171.52487469,0.01684286,0.58534217,-0.54577041
1314364171.56145096,0.01821154,0.58368856,-0.54837853
1314364171.62076640,0.01831552,0.58302832,-0.54674751
1314364171.66085219,0.01838172,0.58483338,-0.54770231
1314364171.71347523,0.01720494,0.58573157,-0.54656237
1314364171.76071692,0.01868186,0.58597815,-0.54715353
1314364171.82547832,0.01880358,0.58597970,-0.54741651
1314364171.87257385,0.01808998,0.58676052,-0.54773378
1314364171.92159843,0.01821868,0.58609551,-0.54569626
1314364171.96146226,0.01824255,0.58598775,-0.54758412
1314364172.02083659,0.01641612,0.58563030,-0.54822737
1314364172.06161571,0.01931415,0.58610940,-0.54806286
1314364172.11346221,0.01716784,0.58522642,-0.54723567
1314364172.16556263,0.01695652,0.58511394,-0.54846209
1314364172.21356106,0.01807453,0.58663541,-0.54800373
1314364172.26081634,0.02031868,0.58762771,-0.54720598
1314364172.32082438,0.01847143,0.58699328,-0.54595840
1314364172.36069632,0.01871492,0.58802080,-0.54635704
1314364172.41365480,0.01844889,0.58548570,-0.54878336
1314364172.46160579,0.01879557,0.58677447,-0.54971796
1314364172.52147055,0.01670825,0.58756983,-0.54998004
1314364172.56450176,0.01866549,0.58803028,-0.54716998
1314364172.62148881,0.01814886,0.58638990,-0.54907757
1314364172.66148210,0.01877062,0.58598602,-0.54795843
1314364172.71367264,0.01761363,0.58728945,-0.54871041
1314364172.76146531,0.02028795,0.58714616,-0.55003917
1314364172.82446194,0.01784859,0.58650088,-0.54720581
1314364172.86465812,0.01943610,0.58690411,-0.55049181
1314364172.91345763,0.01881098,0.58587509,-0.54957527
1314364172.96151090,0.01954355,0.58714384,-0.55101818
1314364173.02548981,0.01667812,0.58678681,-0.55064178
1314364173.07344055,0.02049626,0.58687925,-0.55123085
1314364173.11101556,0.01916829,0.58511752,-0.55291426
1314364173.16146660,0.01761825,0.58624369,-0.54882854
1314364173.21268868,0.01916181,0.58767533,-0.55037850
1314364173.26070070,0.01959282,0.58664280,-0.55021071
1314364173.31347442,0.01843787,0.58768970,-0.55096066
1314364173.36168289,0.01966311,0.58793479,-0.55116141
1314364173.41318369,0.01910390,0.58689314,-0.54916096
1314364173.46147037,0.02016471,0.59001201,-0.55398303
1314364173.51264143,0.01879814,0.58912879,-0.55392063
1314364173.56147909,0.01826541,0.58600825,-0.54947293
1314364173.62165523,0.01824814,0.58693284,-0.55191094
1314364173.66150308,0.01734775,0.58782774,-0.55075490
1314364173.71346283,0.02128460,0.58820343,-0.55390441
1314364173.76163197,0.01941865,0.58806002,-0.55063653
1314364173.81357670,0.01868642,0.58705151,-0.55148143
1314364173.86151338,0.01737782,0.58797491,-0.55250931
1314364173.91259289,0.01839662,0.58667308,-0.55176538
1314364173.96146727,0.01867420,0.58961511,-0.55136645
1314364174.01275325,0.01998293,0.58743584,-0.55275911
1314364174.06072640,0.01947934,0.58663970,-0.54981226
1314364174.11747527,0.01963220,0.58768463,-0.55170131
1314364174.16064000,0.01935069,0.58832914,-0.55172253
1314364174.21266365,0.02102883,0.58871496,-0.55351806
1314364174.26548958,0.01894867,0.58861256,-0.55377299
1314364174.32066202,0.01750255,0.58656716,-0.55289644
1314364174.36147213,0.01893708,0.58718127,-0.55187285
1314364174.41364503,0.01782122,0.58745229,-0.55207461
1314364174.46073079,0.01957640,0.58767045,-0.55035442
1314364174.51596284,0.01879360,0.58475071,-0.55226785
1314364174.56562686,0.01871319,0.58679026,-0.55107290
1314364174.62549114,0.01971142,0.58600461,-0.55060405
1314364174.67261314,0.01711064,0.58682382,-0.55251610
1314364174.71264577,0.02039035,0.58832884,-0.55274218
1314364174.76148319,0.01871649,0.58719867,-0.55323577
1314364174.82067251,0.01795010,0.58655602,-0.55233037
1314364174.86466122,0.01836571,0.58642292,-0.55230528
1314364174.91347456,0.01877644,0.58772427,-0.55445129
1314364174.96162987,0.01969607,0.58792853,-0.55061942
1314364175.01247787,0.02064497,0.58920133,-0.55070901
1314364175.06147647,0.01977683,0.58873111,-0.55372584
1314364175.12063575,0.01867097,0.58692640,-0.55175138
1314364175.16146159,0.01697971,0.58797663,-0.55226243
1314364175.22066379,0.01883816,0.58617568,-0.55362600
1314364175.26160860,0.01803868,0.58679515,-0.55084205
1314364175.31349111,0.01873990,0.58550447,-0.55079162
1314364175.36199522,0.01835543,0.58668101,-0.55244285
1314364175.42446780,0.01953725,0.58742183,-0.55102986
1314364175.46149230,0.01922068,0.58730471,-0.55172235
1314364175.51263523,0.01805426,0.58566445,-0.55299264
1314364175.56146741,0.01740639,0.58666396,-0.54993272
1314364175.62479568,0.01833877,0.58691543,-0.55042052
1314364175.66469598,0.01658005,0.58549571,-0.54781181
1314364175.71118808,0.01710137,0.58695364,-0.55265266
1314364175.76106477,0.01929604,0.58693093,-0.55279517
1314364175.81320190,0.01707624,0.58639652,-0.54859984
1314364175.86150432,0.01983245,0.58897656,-0.55277944
1314364175.92058969,0.01866255,0.58715928,-0.54959357
1314364175.96148396,0.01882858,0.58779263,-0.54904872
1314364176.02059102,0.01651739,0.58489227,-0.55118597
1314364176.07649684,0.01915231,0.58701193,-0.54834902
1314364176.11395979,0.01830251,0.58651334,-0.54879957
1314364176.16146898,0.01610280,0.58489710,-0.55121005
1314364176.21252322,0.01798419,0.58847040,-0.55153286
1314364176.26149464,0.01987858,0.58855873,-0.54980361
1314364176.31247044,0.01879739,0.58572477,-0.54754990
1314364176.36149168,0.01704858,0.58553022,-0.55142993
1314364176.42448950,0.01795094,0.58665907,-0.55003607
1314364176.46552539,0.01673706,0.58705211,-0.54956949
1314364176.52152419,0.01777764,0.58487451,-0.55084270
1314364176.56172204,0.01658955,0.58615905,-0.54984128
1314364176.61262774,0.01828188,0.58600509,-0.54920197
1314364176.67353606,0.02150422,0.58933878,-0.55241519
1314364176.71255040,0.01720727,0.58729273,-0.54859900
1314364176.76146650,0.02003952,0.58652860,-0.55193895
1314364176.82057166,0.01776932,0.58715641,-0.54843038
1314364176.86235762,0.01782490,0.58637738,-0.54761124
1314364176.91373873,0.01742468,0.58561110,-0.54749370
1314364176.96162701,0.01814794,0.58856714,-0.54882407
1314364177.01257277,0.01763186,0.58521205,-0.54639864
1314364177.06154513,0.01906559,0.58674759,-0.54754210
1314364177.11253691,0.01786950,0.58882689,-0.54884219
1314364177.16150451,0.01748367,0.58728945,-0.54858297
1314364177.22146058,0.01818606,0.58894402,-0.54814970
1314364177.26060176,0.01739871,0.58495092,-0.54573518
1314364177.31527853,0.01602246,0.58465636,-0.55256289
1314364177.36056924,0.01847143,0.58699328,-0.54595840
1314364177.41260624,0.01590169,0.58680683,-0.54975110
1314364177.46153045,0.01970436,0.58895141,-0.55035669
1314364177.52063632,0.01770653,0.58780873,-0.54938394
1314364177.56147814,0.01732479,0.58575827,-0.54912060
1314364177.62056327,0.01682787,0.58680344,-0.55037236
1314364177.66154313,0.01731228,0.58650422,-0.54696697
1314364177.71346712,0.01781582,0.58627594,-0.55004102
1314364177.76163602,0.01882672,0.58781785,-0.55134404
1314364177.82049942,0.01700527,0.58807492,-0.54956162
1314364177.87252522,0.01596965,0.58653772,-0.54866511
1314364177.91513658,0.01736586,0.58700621,-0.54602259
1314364177.97355652,0.01979488,0.58688509,-0.54912084
1314364178.01348805,0.01948000,0.58697402,-0.54522473
1314364178.06060076,0.01901803,0.58673185,-0.54605973
1314364178.11347628,0.01568386,0.58792657,-0.54639715
1314364178.16062164,0.02067848,0.58748043,-0.54583400
1314364178.22152042,0.01808179,0.58778656,-0.54774201
1314364178.26182985,0.01664699,0.58535480,-0.54672688
1314364178.32058454,0.01741025,0.58535773,-0.54776263
1314364178.36152387,0.01791757,0.58610350,-0.54611880
1314364178.41349888,0.01588107,0.58629858,-0.55015343
1314364178.47261930,0.01971050,0.58818185,-0.55035049
1314364178.52151012,0.01818982,0.58558881,-0.54623413
1314364178.56165600,0.01732167,0.58511859,-0.54925096
1314364178.61362433,0.01706818,0.58616680,-0.55102861
1314364178.66451836,0.01955525,0.58455127,-0.54655206
1314364178.71361184,0.01694856,0.58693320,-0.55063635
1314364178.77346039,0.02013231,0.58830369,-0.55019194
1314364178.82047772,0.01848935,0.58742374,-0.55014563
1314364178.86052442,0.01731031,0.58448046,-0.54951680
1314364178.92550039,0.01698971,0.58590084,-0.55008614
1314364178.96048808,0.01569372,0.58812732,-0.55301315
1314364179.02546716,0.01959372,0.58777034,-0.54778916
1314364179.06145978,0.01733309,0.58678120,-0.54885787
1314364179.12154865,0.01743515,0.58512169,-0.54964942
1314364179.16148329,0.01616979,0.58578068,-0.54999781
1314364179.21350503,0.01831712,0.58653539,-0.55082393
1314364179.26056576,0.01755482,0.58537978,-0.54991442
1314364179.32151580,0.01664019,0.58579004,-0.55132061
1314364179.36050940,0.01805414,0.58692026,-0.55057210
1314364179.42551780,0.01716928,0.58566004,-0.55169392
1314364179.47251105,0.01873790,0.58678550,-0.55066639
1314364179.52054167,0.01755892,0.58486670,-0.54991031
1314364179.56148386,0.01577270,0.58565414,-0.54974991
1314364179.61254621,0.01694022,0.58488584,-0.55102634
1314364179.66051698,0.01860989,0.58448005,-0.55079144
1314364179.71356392,0.01739207,0.58845955,-0.54994708
1314364179.76048732,0.01928148,0.58793336,-0.55064350
1314364179.82550550,0.01795076,0.58689040,-0.54774284
1314364179.87343621,0.01733411,0.58665293,-0.54885685
1314364179.91348982,0.01918335,0.58600634,-0.55022967
1314364179.97344637,0.01878109,0.58549660,-0.55011415
1314364180.02146459,0.01901351,0.58770370,-0.55281734
1314364180.06148219,0.01575845,0.58516949,-0.55231208
1314364180.12470341,0.01759717,0.58398783,-0.55165648
1314364180.16455626,0.01827262,0.58613491,-0.54933846
1314364180.21257544,0.01712097,0.58759022,-0.55225128
1314364180.27356124,0.01982283,0.58956903,-0.54832941
1314364180.31654382,0.01936977,0.58635485,-0.54711646
1314364180.37344933,0.01714307,0.58420664,-0.54776943
1314364180.42142391,0.01835302,0.58740014,-0.54785836
1314364180.46454287,0.01549432,0.58693838,-0.54964072
1314364180.52184677,0.01725563,0.58638698,-0.54791439
1314364180.57356000,0.01829312,0.58789903,-0.54651558
1314364180.62059522,0.01846206,0.58507413,-0.54634947
1314364180.66146779,0.01686865,0.58623368,-0.54523563
1314364180.71356249,0.01768153,0.58599579,-0.54775172
1314364180.77340770,0.01984498,0.58720994,-0.54372030
1314364180.82149005,0.01942960,0.58813626,-0.54591143
1314364180.86049390,0.01622904,0.58392680,-0.54471534
1314364180.92146349,0.01780000,0.58661342,-0.54572445
1314364180.96157789,0.01591589,0.58626705,-0.54731619
1314364181.01263165,0.01495135,0.58510041,-0.54520333
1314364181.07351947,0.02047794,0.58437073,-0.54271716
1314364181.11435151,0.01978088,0.58617288,-0.54263622
1314364181.16147542,0.01638377,0.58494651,-0.54430902
1314364181.21349812,0.01775965,0.58672434,-0.54410762
1314364181.26141381,0.01945704,0.58490461,-0.54359043
1314364181.32160687,0.01538132,0.58750093,-0.54236144
1314364181.36049104,0.01634767,0.58761787,-0.54230624
1314364181.41340494,0.01738205,0.58518535,-0.54371291
1314364181.46055317,0.02163647,0.58885473,-0.54349381
1314364181.52055669,0.01468115,0.58535856,-0.54508591
1314364181.56147385,0.01675391,0.58556563,-0.54267222
1314364181.62053561,0.01758616,0.58517110,-0.54262096
1314364181.66145921,0.01706963,0.58557969,-0.54427403
1314364181.71256018,0.01669925,0.58416742,-0.54374486
1314364181.76155472,0.01928497,0.58708978,-0.54388690
1314364181.81269717,0.01492952,0.58495164,-0.54331344
1314364181.87334299,0.01681796,0.58557820,-0.54388362
1314364181.91650391,0.02022325,0.58577853,-0.54220253
1314364181.97345805,0.01810599,0.58517098,-0.54313082
1314364182.02160454,0.01862167,0.58465934,-0.54377204
1314364182.06162333,0.01708582,0.58375889,-0.54196435
1314364182.12151957,0.01469143,0.58510047,-0.54494840
1314364182.17252874,0.01561641,0.58545661,-0.54327738
1314364182.22573066,0.01957239,0.58488250,-0.54169357
1314364182.27351069,0.01480155,0.58367068,-0.54331118
1314364182.31349659,0.01685388,0.58313811,-0.54359311
1314364182.36157155,0.01992078,0.58307260,-0.54071468
1314364182.42058420,0.01564926,0.58340132,-0.54298997
1314364182.46151972,0.01480371,0.58546317,-0.54305458
1314364182.52152205,0.01432934,0.58471107,-0.54415643
1314364182.56155992,0.01613907,0.58427846,-0.54161817
1314364182.62150240,0.01289987,0.58573604,-0.54262710
1314364182.66551137,0.01540797,0.58519071,-0.54220748
1314364182.71252966,0.01516039,0.58467615,-0.54181296
1314364182.76146007,0.01854223,0.58554614,-0.54270333
1314364182.82135201,0.01355157,0.58673513,-0.54084182
1314364182.86057639,0.01709094,0.58311754,-0.54195917
1314364182.92151833,0.01525631,0.58378619,-0.54261070
1314364182.96150875,0.01548338,0.58584142,-0.54315299
1314364183.02397394,0.01452527,0.58572292,-0.54307270
1314364183.07336140,0.01564913,0.58465713,-0.54056942
1314364183.12052083,0.01702905,0.58489746,-0.54049116
1314364183.16142011,0.01487337,0.58209532,-0.54005510
1314364183.21248698,0.01576056,0.58491677,-0.54096991
1314364183.26209998,0.01804404,0.58592635,-0.54179007
1314364183.31349182,0.01404099,0.58374560,-0.53768581
1314364183.36446857,0.01884515,0.58448851,-0.54011273
1314364183.41254997,0.01577203,0.58760387,-0.54044956
1314364183.47351480,0.01783975,0.58617193,-0.54058880
1314364183.52141953,0.01862029,0.58525020,-0.53918654
1314364183.56147337,0.01323551,0.58387887,-0.53732854
1314364183.62059116,0.01500769,0.58670473,-0.53954208
1314364183.66154695,0.01434614,0.58220011,-0.53738648
1314364183.71746874,0.01532215,0.58605385,-0.53897893
1314364183.76132417,0.01747244,0.58437485,-0.54005653
1314364183.81330466,0.01368004,0.58527696,-0.53663832
1314364183.87348771,0.01960750,0.58666867,-0.54089499
1314364183.92144179,0.01780090,0.58672023,-0.53209007
1314364183.96152258,0.01560775,0.58489633,-0.53895360
1314364184.01247144,0.01256179,0.58296233,-0.53493071
1314364184.06053281,0.01800015,0.58483571,-0.53584433
1314364184.12131691,0.01582396,0.58357430,-0.53555608
1314364184.17252898,0.01500307,0.58460689,-0.53534150
1314364184.21612763,0.01690896,0.58407754,-0.53576690
1314364184.27339649,0.01975659,0.58571881,-0.53628910
1314364184.32150173,0.01868681,0.58454746,-0.53364229
1314364184.36148310,0.01355100,0.58309972,-0.53676438
1314364184.41259837,0.01348598,0.58423990,-0.53542674
1314364184.46067905,0.01735367,0.58524430,-0.53736997
1314364184.51345849,0.01436181,0.58642322,-0.53660738
1314364184.56153202,0.01779497,0.58395374,-0.53706461
1314364184.61262393,0.01612494,0.58482212,-0.53271300
1314364184.67270565,0.01797693,0.58629853,-0.54058176
1314364184.71412849,0.01895225,0.58446795,-0.53835136
1314364184.77344513,0.02180988,0.58403349,-0.53669727
1314364184.81345654,0.01774871,0.58562738,-0.53761995
1314364184.87341881,0.01887587,0.58497000,-0.53727955
1314364184.91348100,0.01885706,0.58341199,-0.53551388
1314364184.96425247,0.01918745,0.58447260,-0.53901273
1314364185.02055287,0.01437921,0.58424282,-0.53658992
1314364185.06145191,0.01554053,0.58321953,-0.53799987
1314364185.11342144,0.01347690,0.58413845,-0.53785652
1314364185.16146684,0.01781685,0.58512694,-0.53882718
1314364185.21251202,0.01604115,0.58644944,-0.54069519
1314364185.27128553,0.01798874,0.58317310,-0.53623748
1314364185.31678319,0.01797459,0.58473736,-0.53854513
1314364185.36139822,0.01988980,0.58510268,-0.53870678
1314364185.41660333,0.01458884,0.58414912,-0.53995210
1314364185.46145368,0.01938678,0.58794183,-0.53983736
1314364185.51660705,0.01334170,0.58603561,-0.53531367
1314364185.57349706,0.01905923,0.58570325,-0.53416944
1314364185.62151265,0.01885541,0.58753514,-0.53730011
1314364185.66050458,0.01391222,0.58669090,-0.53717554
1314364185.71457815,0.01512599,0.58424884,-0.53789669
1314364185.76062369,0.01902963,0.58714247,-0.53674704
1314364185.81660724,0.01412535,0.58575362,-0.53378105
1314364185.87352395,0.01853531,0.58621645,-0.53366369
1314364185.91659594,0.01836825,0.58571136,-0.53420955
1314364185.96152282,0.01910061,0.58546406,-0.53578526
1314364186.02137446,0.01818765,0.58608043,-0.53260285
1314364186.06460977,0.01667772,0.58481562,-0.53268087
1314364186.12159681,0.01582165,0.58634239,-0.53071702
1314364186.16148758,0.01639446,0.58753437,-0.53474283
1314364186.21349096,0.01814612,0.58324611,-0.53136885
1314364186.27246499,0.02147753,0.58858311,-0.53027081
1314364186.32147646,0.02028081,0.58600259,-0.52762073
1314364186.36147404,0.01612867,0.58477169,-0.52812237
1314364186.41348147,0.01702092,0.58592731,-0.52915931
1314364186.46165800,0.02102327,0.58572847,-0.52676558
1314364186.51364112,0.01798578,0.58458614,-0.52477318
1314364186.56121778,0.02008471,0.58522207,-0.52641124
1314364186.61347795,0.01792599,0.58713400,-0.52317584
1314364186.66146350,0.02091575,0.58518714,-0.52406770
1314364186.71361160,0.01796327,0.58740783,-0.52479577
1314364186.76146269,0.02243276,0.58783442,-0.52143466
1314364186.81349635,0.01720975,0.58784074,-0.51674265
1314364186.86065841,0.02308832,0.58981133,-0.50359136
1314364186.91581225,0.01998408,0.58857852,-0.50497717
1314364186.96268010,0.02374081,0.58988899,-0.49963906
1314364187.01462030,0.01957101,0.58571601,-0.50079447
1314364187.06148386,0.02535509,0.59003091,-0.50251651
1314364187.12153554,0.01929462,0.58571929,-0.50081056
1314364187.16147280,0.02060207,0.58617991,-0.49736315
1314364187.22129631,0.02067454,0.58595961,-0.50073230
1314364187.26303339,0.02117123,0.58412129,-0.49731460
1314364187.31346464,0.02101868,0.58158922,-0.50013936
1314364187.36153126,0.02389819,0.58232796,-0.50024790
1314364187.41349292,0.01999258,0.58504468,-0.49846995
1314364187.47346306,0.02513671,0.58421052,-0.49776021
1314364187.51345372,0.02266373,0.58323717,-0.50005633
1314364187.56143427,0.02496863,0.58383363,-0.49830714
